Weather History for Lawrence, KS

Change the Weather History Date:

Friday, July 19, 2013

  Actual Average Record
Temperature  
Mean Temperature 85 °F 79 °F  
Max Temperature 101 °F 90 °F 107 °F (2006)
Min Temperature 68 °F 68 °F 55 °F (2014)
Degree Days  
Heating Degree Days 0 0  
Month to date heating degree days 0 0  
Since 1 June heating degree days 13 8  
Since 1 July heating degree days 0 0  
Cooling Degree Days 20 14  
Month to date cooling degree days 278 247  
Year to date cooling degree days 717 641  
Since 1 June cooling degree days 590 522  
Growing Degree Days 34 (Base 50)    
Moisture  
Dew Point 65 °F    
Average Humidity 58    
Maximum Humidity 87    
Minimum Humidity 29    
Precipitation  
Precipitation 0.00 in 0.12 in 0.45 in (2012)
Month to date precipitation 0.22 2.92  
Year to date precipitation 15.88 22.27  
Sea Level Pressure  
Sea Level Pressure 29.92 in    
Wind  
Wind Speed 6 mph (WSW)    
Max Wind Speed 18 mph    
Max Gust Speed 26 mph    
Visibility 10 miles    
Events Thunderstorm    
T = Trace of Precipitation, MM = Missing Value Source: NWS Daily Summary

Daily Weather History Graph

Daily Weather History Graph

Search for Another Location

Airport:

Trip Planner

Search our weather history database for the weather conditions in past years. The results will help you decide how hot, cold, wet, or windy it might be!

Date:

Astronomy

Jul. 19, 2013 Rise Set
Actual Time 6:10 AM CDT 8:43 PM CDT
Civil Twilight 5:39 AM CDT 9:13 PM CDT
Nautical Twilight 5:01 AM CDT 9:52 PM CDT
Astronomical Twilight 4:18 AM CDT 10:34 PM CDT
Moon 5:46 PM CDT 2:52 AM CDT
Length of Visible Light 15h 34m
Length of Day
14h 32m
Waxing Gibbous, 87% of the Moon is Illuminated
Jul 19
Waxing Gibbous
Jul 22
Full
Jul 29
Last Quarter
Aug 6
New
Aug 14
First Quarter

Hourly Weather History & Observations

Time (CDT) Temp. Heat Index Dew Point Humidity Pressure Visibility Wind Dir Wind Speed Gust Speed Precip Events Conditions
12:52 AM 73.9 °F - 64.9 °F 73% 29.98 in 10.0 mi Calm Calm - N/A   Clear
1:52 AM 71.1 °F - 64.9 °F 81% 29.98 in 10.0 mi Calm Calm - N/A   Clear
2:52 AM 70.0 °F - 64.0 °F 81% 29.98 in 10.0 mi Calm Calm - N/A   Clear
3:52 AM 70.0 °F - 64.0 °F 81% 29.96 in 10.0 mi Calm Calm - N/A   Clear
4:52 AM 69.1 °F - 64.0 °F 84% 29.96 in 10.0 mi Calm Calm - N/A   Clear
5:52 AM 68.0 °F - 64.0 °F 87% 29.96 in 10.0 mi Calm Calm - N/A   Clear
6:52 AM 71.1 °F - 64.9 °F 81% 29.97 in 10.0 mi Calm Calm - N/A   Clear
7:52 AM 81.0 °F 83.8 °F 68.0 °F 65% 29.97 in 10.0 mi WSW 3.5 mph - N/A   Clear
8:52 AM 86.0 °F 88.8 °F 66.9 °F 53% 29.98 in 10.0 mi WSW 8.1 mph - N/A   Clear
9:52 AM 90.0 °F 92.4 °F 66.0 °F 45% 29.98 in 10.0 mi WSW 13.8 mph 19.6 mph N/A   Clear
10:52 AM 93.0 °F 95.9 °F 66.0 °F 41% 29.97 in 10.0 mi WSW 12.7 mph - N/A   Clear
11:52 AM 96.1 °F 99.9 °F 66.9 °F 38% 29.96 in 10.0 mi SSW 12.7 mph 19.6 mph N/A   Partly Cloudy
12:52 PM 97.0 °F 99.9 °F 64.9 °F 35% 29.94 in 10.0 mi SW 11.5 mph 18.4 mph N/A   Clear
1:52 PM 99.0 °F 101.7 °F 64.0 °F 32% 29.92 in 10.0 mi SSW 11.5 mph 18.4 mph N/A   Clear
2:52 PM 100.0 °F 101.8 °F 63.0 °F 29% 29.90 in 10.0 mi West 10.4 mph 18.4 mph N/A   Clear
3:52 PM 100.0 °F 101.8 °F 63.0 °F 29% 29.87 in 10.0 mi SSW 10.4 mph - N/A   Scattered Clouds
4:52 PM 99.0 °F 99.5 °F 61.0 °F 28% 29.86 in 10.0 mi WSW 8.1 mph - N/A   Scattered Clouds
5:52 PM 99.0 °F 100.5 °F 63.0 °F 30% 29.84 in 10.0 mi WSW 6.9 mph - N/A   Partly Cloudy
6:52 PM 98.1 °F 99.6 °F 63.0 °F 31% 29.83 in 10.0 mi WSW 8.1 mph - N/A   Clear
7:52 PM 95.0 °F 97.4 °F 64.9 °F 37% 29.83 in 10.0 mi Calm Calm - N/A   Clear
8:52 PM 86.0 °F 90.7 °F 70.0 °F 59% 29.85 in 10.0 mi NW 10.4 mph - N/A   Partly Cloudy
9:52 PM 84.9 °F 87.6 °F 66.9 °F 55% 29.88 in 10.0 mi NW 8.1 mph - N/A   Mostly Cloudy
10:41 PM 82.4 °F 84.6 °F 66.2 °F 58% 29.92 in 10.0 mi WNW 6.9 mph - N/A Thunderstorm Thunderstorm
10:52 PM 82.0 °F 84.5 °F 66.9 °F 60% 29.90 in 10.0 mi Calm Calm - N/A Thunderstorm Overcast
11:01 PM 82.4 °F 84.6 °F 66.2 °F 58% 29.93 in 10.0 mi WSW 6.9 mph - N/A   Overcast
11:52 PM 79.0 °F - 68.0 °F 69% 29.88 in 10.0 mi Calm Calm - N/A   Clear